Preview of NWS' New Version of Forecast
This preview is not operational and should not be used for support decisions.

Regional Weather Roundup (RWR)

Issued by National Weather Service (NWS)

                            
000
ASUS46 KSEW 162210
RWRWA 

WASHINGTON REGIONAL WEATHER ROUNDUP
NATIONAL WEATHER SERVICE SEATTLE WA
300 PM PDT TUE APR 16 2019

NOTE:"FAIR" INDICATES FEW OR NO CLOUDS BELOW 12,000 FEET WITH NO 
SIGNIFICANT WEATHER AND/OR OBSTRUCTIONS TO VISIBILITY.

WAZ507-509-555>559-162300-
SEATTLE, TACOMA, EVERETT, AND VICINITY
  
CITY           SKY/WX    TMP DP  RH WIND       PRES   REMARKS
EVERETT        CLOUDY    54  42  64 S18G25    30.01R                  
BOEING FIELD   CLOUDY    56  43  61 S8        30.02S                  
RENTON         CLOUDY    57  44  62 S8        30.02S                  
SEATAC AIRPORT CLOUDY    55  43  63 SW13      30.02S                  
JBLM-MCCHORD   CLOUDY    57  50  76 SW12      30.02S                  
PUYALLUP       CLOUDY    57  45  62 VRB7      30.02S                  
BREMERTON      LGT RAIN  51  45  79 SW13      30.03R                  
JBLM-FT LEWIS  PTSUNNY   57  49  75 S8        30.02R                  
TACOMA NARROWS CLOUDY    55  44  66 SW7       30.02F                  
$$
 
WAZ001-503-506-510-514-515-162300-
NORTH INTERIOR
  
CITY           SKY/WX    TMP DP  RH WIND       PRES   REMARKS
BELLINGHAM     CLOUDY    55  42  61 SW6       30.00R                  
FRIDAY HARBOR  CLOUDY    53  42  66 MISG      30.01R                  
EASTSOUND      CLOUDY    54  43  66 S8        29.99R                  
PORT ANGELES   CLOUDY    52  40  63 VRB3      30.00R                  
EDIZ HOOK      FAIR      50  43  76 CALM      30.00S                  
PORT TOWNSEND  CLOUDY    52  43  71 NW7       30.00R                  
NAS WHIDBEY    CLOUDY    58  43  57 S10       30.04R                  
ARLINGTON      CLOUDY    55  43  63 S12       30.01R                  
BURLINGTON     CLOUDY    57  43  58 S12G21    30.01R                  
$$
 
WAZ020-022-039-040-504-511-512-162300-
SOUTHWEST INTERIOR
  
CITY           SKY/WX    TMP DP  RH WIND       PRES   REMARKS
SHELTON        CLOUDY    54  45  71 W9        30.01R                  
OLYMPIA        CLOUDY    55  43  63 SW6       30.02S                  
CHEHALIS       CLOUDY    57  46  67 S8G14     30.03R                  
KELSO          CLOUDY    59  46  62 S10       30.05S                  
VANCOUVER      CLOUDY    58  45  62 CALM      30.05S                  
SCAPPOOSE, OR  CLOUDY    60  46  59 S7        30.05R                  
PORTLAND, OR   PTSUNNY   59  45  59 W8        30.05S                  
$$
 
WAZ021-516-517-162300-
WASHINGTON COAST
  
CITY           SKY/WX    TMP DP  RH WIND       PRES   REMARKS
FORKS          LGT RAIN  50  45  83 S13G20    30.02R                  
HOQUIAM        CLOUDY    53  49  86 SW8       30.04R                  
ASTORIA, OR    CLOUDY    54  46  74 S14G21    30.05R                  
$$
 
WAZ019-023-024-040-567>569-162300-
CASCADE MOUNTAINS AND COLUMBIA GORGE
  
CITY           SKY/WX    TMP DP  RH WIND       PRES   REMARKS
STAMPEDE PASS  NOT AVBL                                               
TROUTDALE, OR  CLOUDY    61  45  55 SW9       30.05S                  
HOOD RIVER, OR MOCLDY    59  45  58 MISG      30.02R                  
THE DALLES, OR MOSUNNY   61  42  49 NW14      30.00F                  
$$

WAZ026-027-041>044-520-521-162300-
EAST SLOPES
  
CITY           SKY/WX    TMP DP  RH WIND       PRES   REMARKS
OMAK           CLOUDY    61  28  28 SW14      29.89F                  
WENATCHEE      CLOUDY    60  31  33 S7        29.91S                  
ELLENSBURG     CLOUDY    60  33  36 SW5       29.94S                  
YAKIMA         CLOUDY    63  39  41 S10       29.95S                  
SUNNYSIDE ARPT CLOUDY    61  40  45 W5        29.96F                  
YAKIMA TC      MOCLDY    59  33  37 W5        29.93S                  
$$

WAZ028-034-035-162300-
COLUMBIA BASIN
  
CITY           SKY/WX    TMP DP  RH WIND       PRES   REMARKS
EPHRATA        CLOUDY    60  33  36 S12       29.93F                  
MOSES LAKE     CLOUDY    62  35  36 S15       29.95F                  
PASCO          PTSUNNY   66  38  35 SW13G18   29.98S                  
RICHLAND ARPT  CLOUDY    64  41  43 S10G20    29.98                   
HERMISTON, OR  PTSUNNY   65  38  36 SW15G24   29.98S                  
$$

WAZ036>038-162300-
NORTHEAST WASHINGTON
  
CITY           SKY/WX    TMP DP  RH WIND       PRES   REMARKS
SPOKANE GEIGER PTSUNNY   54  30  40 SW15G24   29.95R                  
SPOKANE FELTS  CLOUDY    56  29  35 W9        29.95R                  
FAIRCHILD AFB  CLOUDY    53  31  43 SW14      29.94R                  
COEURDALENE,ID PTSUNNY   54  30  40 SW15      29.95R                  
DEER PARK      CLOUDY    54  29  38 SW13      29.93R                  
$$

WAZ029>033-162300-
SOUTHEAST WASHINGTON
  
CITY           SKY/WX    TMP DP  RH WIND       PRES   REMARKS
PULLMAN        PTSUNNY   52  34  50 W10       30.00R                  
LEWISTON, ID   CLOUDY    57  40  52 S12       29.99R                  
WALLA WALLA    CLOUDY    56  41  57 S7        30.00F                  
PENDLETON, OR  PTSUNNY   58  38  47 S9        29.99F                  
$$